Location: Edoum�
(0.9447°N, 10.6482°E)
Time: 23:24:55
(UTC+00:00)

SPELTRA - Pass Details

Date: 07 June 2020
Orbit: 578 x 26556 km, 7.7° (Epoch: 10 July)

Event Time Altitude Azimuth Distance (km) Brightness Sun altitude
Rises 03:53:16 0° 277° (W) 12,543 8.7 -18.7°
Reaches altitude 10° 04:07:58 10° 275° (W) 7,586 7.5 -15.3°
Maximum altitude 04:24:07 73° 192° (SSW) 1,182 3.8 -11.6°
Drops below altitude 10° 04:28:20 10° 106° (ESE) 2,158 6.1 -10.7°
Sets 04:29:52 0° 104° (ESE) 2,876 6.9 -10.3°
